User: anonymous
Location: Whispering Pines Observatory
(39.4020°N, 104.7430°W)
Time: 09:32:47
(UTC-06:00)
Language:

MOS 1 Rocket - Orbit

View from above orbital plane
View from above orbital plane
View from above satellite
View from above satellite

Ground track
Ground track

The orbit data is extracted from the following two-line orbital elements,

1 17528U 87018B   14211.26313868  .00000118  00000-0  35919-4 0  4281
2 17528 097.4618 275.7148 0153413 358.4560 044.5703 14.50011042447244
Epoch (UTC): 30 July 2014 06:18:55
Eccentricity: 0.0153413
inclination: 97.4618°
perigee height: 616 km
apogee height: 834 km
right ascension of ascending node: 275.7148°
argument of perigee: 358.4560°
revolutions per day: 14.50011042
mean anomaly at epoch: 44.5703°
orbit number at epoch: 44724

The dashed part of the orbit path shows where the satellite is in the earth's shadow,  

DLR